WGS F1 (USA 195)

Last updated on Wed Sep 17 2025 00:02:46 GMT+0000 (Coordinated Universal Time)

1 32258U 07046A 25259.50391167 -.00000286 00000+0 00000+0 0 9997 2 32258 0.1132 89.0476 0000660 155.1859 250.3637 1.00271452 49594
UTC large
Height (km)
Speed (km/s)
/
Latitude / Longitude
Inclination (degrees)
Orbital Period (minutes)
Azimuth
Elevation
Range (km)
Doppler Factor

Next 0 passes for location: London (51.5072 / 0.1276)

Sorry there are no passes over London.